Time,TemperatureF,DewpointF,PressureIn,WindDirection,WindDirectionDegrees,WindSpeedMPH,WindSpeedGustMPH,Humidity,HourlyPrecipIn,Conditions,Clouds,dailyrainin,SoftwareType,DateUTC
2013-01-29 00:03:00,47.0,44.0,30.26,NNE,31,0.0,0.0,89,0.00,,,0.00,,2013-01-29 05:03:00,
2013-01-29 00:12:00,47.0,44.0,30.26,NNE,31,0.0,0.0,89,0.00,,,0.00,,2013-01-29 05:12:00,
2013-01-29 00:22:00,48.0,45.0,30.26,NNE,31,0.0,0.0,90,0.00,,,0.00,,2013-01-29 05:22:00,
2013-01-29 00:32:00,48.0,45.0,30.26,NNE,31,0.0,0.0,89,0.00,,,0.00,,2013-01-29 05:32:00,
2013-01-29 00:42:00,48.0,45.0,30.26,NNE,31,0.0,0.0,89,0.00,,,0.00,,2013-01-29 05:42:00,
2013-01-29 00:52:00,48.0,45.0,30.26,NNE,31,0.0,0.0,89,0.00,,,0.00,,2013-01-29 05:52:00,
2013-01-29 01:02:00,48.0,45.0,30.26,NNE,31,0.0,0.0,89,0.00,,,0.00,,2013-01-29 06:02:00,
2013-01-29 01:11:00,48.0,45.0,30.26,NNE,31,0.0,0.0,89,0.00,,,0.00,,2013-01-29 06:11:00,
2013-01-29 01:21:00,47.0,44.0,30.26,NNE,31,0.0,0.0,90,0.00,,,0.00,,2013-01-29 06:21:00,
2013-01-29 01:32:00,48.0,45.0,30.25,NNE,31,0.0,0.0,89,0.00,,,0.00,,2013-01-29 06:32:00,
2013-01-29 01:42:00,48.0,45.0,30.25,NNE,31,0.0,0.0,89,0.00,,,0.00,,2013-01-29 06:42:00,
2013-01-29 01:52:00,48.0,45.0,30.25,NNE,31,0.0,0.0,89,0.00,,,0.00,,2013-01-29 06:52:00,
2013-01-29 02:01:00,47.0,44.0,30.25,NNE,31,0.0,0.0,89,0.00,,,0.00,,2013-01-29 07:01:00,
2013-01-29 02:11:00,47.0,44.0,30.25,NNE,31,0.0,0.0,89,0.00,,,0.00,,2013-01-29 07:11:00,
2013-01-29 02:21:00,48.0,45.0,30.25,NNE,31,0.0,0.0,89,0.00,,,0.00,,2013-01-29 07:21:00,
2013-01-29 02:32:00,48.0,45.0,30.24,NNE,31,0.0,0.0,88,0.00,,,0.00,,2013-01-29 07:32:00,
2013-01-29 02:42:00,48.0,45.0,30.24,NNE,31,0.0,0.0,88,0.00,,,0.00,,2013-01-29 07:42:00,
2013-01-29 02:52:00,47.0,44.0,30.24,NNE,31,0.0,0.0,89,0.00,,,0.00,,2013-01-29 07:52:00,
2013-01-29 03:02:00,45.0,42.0,30.24,NNE,31,0.0,0.0,89,0.00,,,0.00,,2013-01-29 08:02:00,
2013-01-29 03:11:00,45.0,42.0,30.24,NNE,31,0.0,0.0,89,0.00,,,0.00,,2013-01-29 08:11:00,
2013-01-29 03:21:00,45.0,43.0,30.24,NNE,31,0.0,0.0,91,0.00,,,0.00,,2013-01-29 08:21:00,
2013-01-29 03:31:00,46.0,44.0,30.25,NNE,31,0.0,0.0,91,0.00,,,0.00,,2013-01-29 08:31:00,
2013-01-29 03:42:00,46.0,44.0,30.25,NNE,31,0.0,0.0,91,0.00,,,0.00,,2013-01-29 08:42:00,
2013-01-29 03:52:00,44.0,42.0,30.25,NNE,31,0.0,0.0,92,0.00,,,0.00,,2013-01-29 08:52:00,
2013-01-29 04:02:00,44.0,42.0,30.25,NNE,31,0.0,0.0,91,0.00,,,0.00,,2013-01-29 09:02:00,
2013-01-29 04:11:00,44.0,42.0,30.25,NNE,31,0.0,0.0,91,0.00,,,0.00,,2013-01-29 09:11:00,
2013-01-29 04:21:00,46.0,44.0,30.25,NNE,31,0.0,0.0,93,0.00,,,0.00,,2013-01-29 09:21:00,
2013-01-29 04:32:00,46.0,44.0,30.24,NNE,31,0.0,0.0,92,0.00,,,0.00,,2013-01-29 09:32:00,
2013-01-29 04:42:00,46.0,44.0,30.24,NNE,31,0.0,0.0,92,0.00,,,0.00,,2013-01-29 09:42:00,
2013-01-29 04:52:00,46.0,44.0,30.24,NNE,31,0.0,0.0,91,0.00,,,0.00,,2013-01-29 09:52:00,
2013-01-29 05:01:00,46.0,44.0,30.24,NNE,31,0.0,0.0,91,0.00,,,0.00,,2013-01-29 10:01:00,
2013-01-29 05:11:00,46.0,44.0,30.24,NNE,31,0.0,0.0,91,0.00,,,0.00,,2013-01-29 10:11:00,
2013-01-29 05:21:00,45.0,43.0,30.23,NNE,31,0.0,0.0,91,0.00,,,0.00,,2013-01-29 10:21:00,
2013-01-29 05:32:00,45.0,43.0,30.23,NNE,31,0.0,0.0,92,0.00,,,0.00,,2013-01-29 10:32:00,
2013-01-29 05:42:00,45.0,43.0,30.23,NNE,31,0.0,0.0,92,0.00,,,0.00,,2013-01-29 10:42:00,
2013-01-29 05:52:00,45.0,43.0,30.23,NNE,31,0.0,0.0,91,0.00,,,0.00,,2013-01-29 10:52:00,
2013-01-29 06:02:00,45.0,43.0,30.23,NNE,31,0.0,0.0,91,0.00,,,0.00,,2013-01-29 11:02:00,
2013-01-29 06:11:00,45.0,43.0,30.23,NNE,31,0.0,0.0,91,0.00,,,0.00,,2013-01-29 11:11:00,
2013-01-29 06:22:00,44.0,42.0,30.22,NNE,31,0.0,0.0,91,0.00,,,0.00,,2013-01-29 11:22:00,
2013-01-29 06:32:00,44.0,42.0,30.22,NNE,31,0.0,0.0,91,0.00,,,0.00,,2013-01-29 11:32:00,
2013-01-29 06:42:00,44.0,42.0,30.22,NNE,31,0.0,0.0,91,0.00,,,0.00,,2013-01-29 11:42:00,
2013-01-29 06:53:00,45.0,43.0,30.22,NNE,31,0.0,0.0,92,0.00,,,0.00,,2013-01-29 11:53:00,
2013-01-29 07:02:00,45.0,42.0,30.22,NNE,31,0.0,0.0,90,0.00,,,0.00,,2013-01-29 12:02:00,
2013-01-29 07:12:00,45.0,42.0,30.22,NNE,31,0.0,0.0,90,0.00,,,0.00,,2013-01-29 12:12:00,
2013-01-29 07:22:00,44.0,42.0,30.22,NNE,31,0.0,0.0,92,0.00,,,0.00,,2013-01-29 12:22:00,
2013-01-29 07:33:00,45.0,43.0,30.22,NNE,31,0.0,0.0,92,0.00,,,0.00,,2013-01-29 12:33:00,
2013-01-29 07:43:00,45.0,43.0,30.22,NNE,31,0.0,0.0,92,0.00,,,0.00,,2013-01-29 12:43:00,
2013-01-29 07:53:00,45.0,43.0,30.22,NNE,31,0.0,0.0,92,0.00,,,0.00,,2013-01-29 12:53:00,
2013-01-29 08:02:00,45.0,43.0,30.22,NNE,31,0.0,0.0,92,0.00,,,0.00,,2013-01-29 13:02:00,
2013-01-29 08:12:00,45.0,43.0,30.22,NNE,31,0.0,0.0,92,0.00,,,0.00,,2013-01-29 13:12:00,
2013-01-29 08:22:00,46.0,44.0,30.22,NNE,31,0.0,0.0,92,0.00,,,0.00,,2013-01-29 13:22:00,
2013-01-29 08:32:00,45.0,42.0,30.22,NNE,31,0.0,0.0,90,0.00,,,0.00,,2013-01-29 13:32:00,
2013-01-29 08:43:00,45.0,42.0,30.22,NNE,31,0.0,0.0,90,0.00,,,0.00,,2013-01-29 13:43:00,
2013-01-29 08:52:00,45.0,43.0,30.22,NNE,31,0.0,0.0,92,0.00,,,0.00,,2013-01-29 13:52:00,
2013-01-29 09:02:00,45.0,43.0,30.22,South,182,0.0,0.0,92,0.00,,,0.00,,2013-01-29 14:02:00,
2013-01-29 09:12:00,45.0,43.0,30.22,South,182,0.0,0.0,91,0.00,,,0.00,,2013-01-29 14:12:00,
2013-01-29 09:22:00,45.0,43.0,30.22,South,182,0.0,0.0,91,0.00,,,0.00,,2013-01-29 14:22:00,
2013-01-29 09:33:00,46.0,44.0,30.22,South,182,0.0,0.0,92,0.00,,,0.00,,2013-01-29 14:33:00,
2013-01-29 09:43:00,46.0,44.0,30.22,South,182,0.0,0.0,92,0.00,,,0.00,,2013-01-29 14:43:00,
2013-01-29 09:53:00,49.0,46.0,30.21,South,182,0.0,0.0,88,0.00,,,0.00,,2013-01-29 14:53:00,
2013-01-29 10:02:00,49.0,45.0,30.22,South,182,0.0,0.0,87,0.00,,,0.00,,2013-01-29 15:02:00,
2013-01-29 10:12:00,49.0,45.0,30.22,South,182,0.0,0.0,87,0.00,,,0.00,,2013-01-29 15:12:00,
2013-01-29 10:22:00,50.0,46.0,30.21,South,182,0.0,0.0,85,0.00,,,0.00,,2013-01-29 15:22:00,
2013-01-29 10:33:00,49.0,45.0,30.21,South,182,0.0,0.0,85,0.00,,,0.00,,2013-01-29 15:33:00,
2013-01-29 10:43:00,49.0,45.0,30.21,South,182,0.0,0.0,85,0.00,,,0.00,,2013-01-29 15:43:00,
2013-01-29 10:53:00,48.0,44.0,30.21,South,182,0.0,0.0,86,0.00,,,0.00,,2013-01-29 15:53:00,
2013-01-29 11:03:00,49.0,45.0,30.21,South,182,0.0,0.0,86,0.00,,,0.00,,2013-01-29 16:03:00,
2013-01-29 11:12:00,49.0,45.0,30.21,South,182,0.0,0.0,86,0.00,,,0.00,,2013-01-29 16:12:00,
2013-01-29 11:23:00,54.0,48.0,30.21,SSE,149,0.0,1.0,80,0.00,,,0.00,,2013-01-29 16:23:00,
2013-01-29 11:32:00,54.0,47.0,30.21,SSE,150,0.0,0.0,77,0.00,,,0.00,,2013-01-29 16:32:00,
2013-01-29 11:43:00,54.0,47.0,30.21,SSE,150,0.0,0.0,77,0.00,,,0.00,,2013-01-29 16:43:00,
2013-01-29 11:53:00,58.0,49.0,30.18,SSE,156,0.0,1.0,73,0.00,,,0.00,,2013-01-29 16:53:00,
2013-01-29 12:03:00,59.0,48.0,30.18,South,169,0.0,0.0,68,0.00,,,0.00,,2013-01-29 17:03:00,
2013-01-29 12:12:00,59.0,48.0,30.18,South,169,0.0,0.0,68,0.00,,,0.00,,2013-01-29 17:12:00,
2013-01-29 12:22:00,61.0,50.0,30.16,ESE,122,0.0,0.0,68,0.00,,,0.00,,2013-01-29 17:22:00,
2013-01-29 12:33:00,62.0,51.0,30.16,SSE,152,0.0,0.0,67,0.00,,,0.00,,2013-01-29 17:33:00,
2013-01-29 12:42:00,62.0,51.0,30.16,SSE,152,0.0,0.0,67,0.00,,,0.00,,2013-01-29 17:42:00,
2013-01-29 12:52:00,59.0,50.0,30.15,SSE,153,0.0,0.0,72,0.00,,,0.00,,2013-01-29 17:52:00,
2013-01-29 13:04:00,62.0,51.0,30.14,SE,132,0.0,0.0,67,0.00,,,0.00,,2013-01-29 18:04:00,
2013-01-29 13:12:00,62.0,51.0,30.14,SE,132,0.0,0.0,67,0.00,,,0.00,,2013-01-29 18:12:00,
2013-01-29 13:22:00,61.0,51.0,30.13,South,170,0.0,0.0,69,0.00,,,0.00,,2013-01-29 18:22:00,
2013-01-29 13:33:00,60.0,50.0,30.12,SW,232,0.0,0.0,70,0.00,,,0.00,,2013-01-29 18:33:00,
2013-01-29 13:42:00,60.0,50.0,30.12,SW,232,0.0,0.0,70,0.00,,,0.00,,2013-01-29 18:42:00,
2013-01-29 13:52:00,59.0,50.0,30.11,WSW,237,0.0,0.0,73,0.00,,,0.00,,2013-01-29 18:52:00,
2013-01-29 14:03:00,60.0,51.0,30.11,SW,225,0.0,0.0,73,0.00,,,0.00,,2013-01-29 19:03:00,
2013-01-29 14:12:00,60.0,51.0,30.11,SW,225,0.0,0.0,73,0.00,,,0.00,,2013-01-29 19:12:00,
2013-01-29 14:23:00,59.0,52.0,30.11,SW,226,0.0,0.0,77,0.00,,,0.00,,2013-01-29 19:23:00,
2013-01-29 14:32:00,59.0,52.0,30.10,South,181,0.0,0.0,77,0.00,,,0.00,,2013-01-29 19:32:00,
2013-01-29 14:42:00,59.0,52.0,30.10,South,181,0.0,0.0,77,0.00,,,0.00,,2013-01-29 19:42:00,
2013-01-29 14:52:00,59.0,53.0,30.09,ESE,113,0.0,0.0,80,0.00,,,0.00,,2013-01-29 19:52:00,
2013-01-29 15:02:00,59.0,53.0,30.09,East,98,0.0,1.0,80,0.00,,,0.00,,2013-01-29 20:02:00,
2013-01-29 15:13:00,59.0,53.0,30.09,East,98,0.0,1.0,80,0.00,,,0.00,,2013-01-29 20:13:00,
2013-01-29 15:22:00,60.0,53.0,30.09,SE,126,0.0,0.0,78,0.00,,,0.00,,2013-01-29 20:22:00,
2013-01-29 15:33:00,60.0,53.0,30.08,SE,144,0.0,1.0,79,0.00,,,0.00,,2013-01-29 20:33:00,
2013-01-29 15:42:00,60.0,53.0,30.08,SE,144,0.0,1.0,79,0.00,,,0.00,,2013-01-29 20:42:00,
2013-01-29 15:53:00,59.0,54.0,30.08,SE,144,0.0,0.0,84,0.01,,,0.01,,2013-01-29 20:53:00,
2013-01-29 16:03:00,59.0,55.0,30.08,SE,144,0.0,0.0,86,0.01,,,0.01,,2013-01-29 21:03:00,
2013-01-29 16:12:00,59.0,55.0,30.08,SE,144,0.0,0.0,86,0.01,,,0.01,,2013-01-29 21:12:00,
2013-01-29 16:22:00,60.0,55.0,30.06,SE,139,0.0,0.0,85,0.01,,,0.01,,2013-01-29 21:22:00,
2013-01-29 16:33:00,60.0,55.0,30.06,SE,139,0.0,0.0,83,0.01,,,0.01,,2013-01-29 21:33:00,
2013-01-29 16:42:00,60.0,55.0,30.06,SE,139,0.0,0.0,83,0.01,,,0.01,,2013-01-29 21:42:00,
2013-01-29 16:53:00,59.0,54.0,30.05,SE,139,0.0,0.0,84,0.00,,,0.01,,2013-01-29 21:53:00,
2013-01-29 17:03:00,59.0,54.0,30.05,SE,139,0.0,0.0,84,0.00,,,0.01,,2013-01-29 22:03:00,
2013-01-29 17:12:00,59.0,54.0,30.05,SE,139,0.0,0.0,84,0.00,,,0.01,,2013-01-29 22:12:00,
2013-01-29 17:22:00,59.0,54.0,30.05,SE,139,0.0,0.0,84,0.00,,,0.01,,2013-01-29 22:22:00,
2013-01-29 17:33:00,59.0,54.0,30.05,SE,139,0.0,0.0,84,0.00,,,0.01,,2013-01-29 22:33:00,
2013-01-29 17:42:00,59.0,54.0,30.05,SE,139,0.0,0.0,84,0.00,,,0.01,,2013-01-29 22:42:00,
2013-01-29 17:53:00,59.0,54.0,30.05,SE,139,0.0,0.0,84,0.00,,,0.01,,2013-01-29 22:53:00,
2013-01-29 18:02:00,59.0,54.0,30.04,SE,139,0.0,0.0,84,0.00,,,0.01,,2013-01-29 23:02:00,
2013-01-29 18:12:00,59.0,54.0,30.04,SE,139,0.0,0.0,84,0.00,,,0.01,,2013-01-29 23:12:00,
2013-01-29 18:23:00,59.0,54.0,30.04,SE,139,0.0,0.0,85,0.00,,,0.01,,2013-01-29 23:23:00,
2013-01-29 18:33:00,59.0,55.0,30.04,SE,139,0.0,0.0,86,0.00,,,0.01,,2013-01-29 23:33:00,
2013-01-29 18:42:00,59.0,55.0,30.04,SE,139,0.0,0.0,86,0.00,,,0.01,,2013-01-29 23:42:00,
2013-01-29 18:53:00,59.0,55.0,30.04,SE,139,0.0,0.0,86,0.00,,,0.01,,2013-01-29 23:53:00,
2013-01-29 19:03:00,59.0,54.0,30.04,SE,139,0.0,0.0,85,0.00,,,0.01,,2013-01-30 00:03:00,
2013-01-29 19:12:00,59.0,54.0,30.04,SE,139,0.0,0.0,85,0.00,,,0.01,,2013-01-30 00:12:00,
2013-01-29 19:22:00,59.0,54.0,30.03,SE,139,0.0,0.0,84,0.00,,,0.01,,2013-01-30 00:22:00,
2013-01-29 19:32:00,59.0,54.0,30.04,SE,139,0.0,0.0,84,0.00,,,0.01,,2013-01-30 00:32:00,
2013-01-29 19:43:00,59.0,54.0,30.04,SE,139,0.0,0.0,84,0.00,,,0.01,,2013-01-30 00:43:00,
2013-01-29 19:53:00,58.0,54.0,30.03,SE,139,0.0,0.0,85,0.00,,,0.01,,2013-01-30 00:53:00,
2013-01-29 20:02:00,59.0,54.0,30.04,SE,139,0.0,0.0,84,0.00,,,0.01,,2013-01-30 01:02:00,
2013-01-29 20:12:00,59.0,54.0,30.04,SE,139,0.0,0.0,84,0.00,,,0.01,,2013-01-30 01:12:00,
2013-01-29 20:22:00,58.0,54.0,30.04,SE,139,0.0,0.0,85,0.00,,,0.01,,2013-01-30 01:22:00,
2013-01-29 20:32:00,58.0,54.0,30.04,SE,139,0.0,0.0,85,0.00,,,0.01,,2013-01-30 01:32:00,
2013-01-29 20:42:00,58.0,54.0,30.04,SE,139,0.0,0.0,85,0.00,,,0.01,,2013-01-30 01:42:00,
2013-01-29 20:52:00,59.0,54.0,30.05,SE,139,0.0,0.0,85,0.00,,,0.01,,2013-01-30 01:52:00,
2013-01-29 21:02:00,59.0,54.0,30.03,SE,139,0.0,0.0,85,0.00,,,0.01,,2013-01-30 02:02:00,
2013-01-29 21:12:00,59.0,54.0,30.03,SE,139,0.0,0.0,85,0.00,,,0.01,,2013-01-30 02:12:00,
2013-01-29 21:22:00,59.0,54.0,30.03,SE,139,0.0,0.0,84,0.00,,,0.01,,2013-01-30 02:22:00,
2013-01-29 21:33:00,59.0,54.0,30.01,SE,139,0.0,0.0,84,0.00,,,0.01,,2013-01-30 02:33:00,
2013-01-29 21:42:00,59.0,54.0,30.01,SE,139,0.0,0.0,84,0.00,,,0.01,,2013-01-30 02:42:00,
2013-01-29 21:53:00,59.0,54.0,30.01,SE,139,0.0,0.0,85,0.00,,,0.01,,2013-01-30 02:53:00,
2013-01-29 22:03:00,59.0,54.0,30.00,SE,139,0.0,0.0,85,0.00,,,0.01,,2013-01-30 03:03:00,
2013-01-29 22:12:00,59.0,54.0,30.00,SE,139,0.0,0.0,85,0.00,,,0.01,,2013-01-30 03:12:00,
2013-01-29 22:22:00,59.0,55.0,29.99,SE,139,0.0,0.0,88,0.00,,,0.01,,2013-01-30 03:22:00,
2013-01-29 22:32:00,58.0,54.0,29.99,SE,139,0.0,0.0,88,0.01,,,0.02,,2013-01-30 03:32:00,
2013-01-29 22:42:00,58.0,54.0,29.99,SE,139,0.0,0.0,88,0.01,,,0.02,,2013-01-30 03:42:00,
2013-01-29 22:52:00,58.0,55.0,29.99,SE,139,0.0,0.0,91,0.07,,,0.07,,2013-01-30 03:52:00,
2013-01-29 23:02:00,58.0,56.0,29.99,SE,139,0.0,0.0,92,0.11,,,0.12,,2013-01-30 04:02:00,
2013-01-29 23:12:00,58.0,56.0,29.99,SE,139,0.0,0.0,92,0.11,,,0.12,,2013-01-30 04:12:00,
2013-01-29 23:22:00,58.0,56.0,29.98,SE,139,0.0,0.0,92,0.15,,,0.16,,2013-01-30 04:22:00,
2013-01-29 23:32:00,58.0,56.0,29.98,SE,139,0.0,0.0,92,0.15,,,0.16,,2013-01-30 04:32:00,
2013-01-29 23:42:00,58.0,56.0,29.98,SE,139,0.0,0.0,92,0.15,,,0.16,,2013-01-30 04:42:00,
2013-01-29 23:52:00,58.0,56.0,29.99,SE,139,0.0,0.0,93,0.14,,,0.21,,2013-01-30 04:52:00,